www.pogodaiklimat.ru
ПОГОДА в Лас-Вегасе
Время
и дата
15:56 12.04
16:56 12.04
17:56 12.04
18:56 12.04
19:56 12.04
20:56 12.04
21:56 12.04
22:56 12.04
23:56 12.04
00:56 13.04
01:56 13.04
02:56 13.04
03:56 13.04
04:56 13.04
05:56 13.04
06:56 13.04
07:56 13.04
08:56 13.04
09:56 13.04
10:56 13.04
11:56 13.04
12:56 13.04
13:56 13.04
14:56 13.04
15:56 13.04
16:56 13.04
17:56 13.04
18:56 13.04
19:56 13.04
20:56 13.04
21:56 13.04
22:56 13.04
23:56 13.04
00:56 14.04
01:56 14.04
02:56 14.04
03:56 14.04
04:56 14.04
05:56 14.04
06:56 14.04
07:56 14.04
08:56 14.04
09:56 14.04
10:56 14.04
11:56 14.04
12:56 14.04
13:56 14.04
14:56 14.04
Ветер
(напр.,м/с)
Видим. Явления Облачность Т
(С)
Тd
(С)
f
(%)
Тe
(С)
Тes
(С)
Комфортность P
(гПа)
Po
(гПа)
Тmin
(С)
Tmax
(С)
R
(мм)
R24
(мм)
S
(см)
ЮЗ 11
{13}
16 км ясно +28.9 -5.0 11 +26 +26 жарко 1008.0 920.7 +25.0 +30.6
Ю 8
{11}
16 км ясно +28.3 -5.6 10 +25 +26 комфорт 1008.5 921.0
Ю 7 16 км ясно +26.7 -6.1 11 +24 +24 комфорт 1009.0 921.3
Ю 6 16 км ясно +25.0 -5.0 13 +23 +23 комфорт 1009.6 922.2
Ю 8 16 км ясно +23.3 -3.9 16 +21 +21 комфорт 1010.4 922.9
Ю 6 16 км ясно +22.2 -3.3 18 +21 +21 комфорт 1011.1 923.5
Ю 5 16 км ясно +21.7 -2.8 19 +21 +21 комфорт 1011.4 923.8 +21.7 +28.9
штиль 0 16 км ясно +20.0 -3.3 21 +20 +20 1011.7 924.4
Ю 2 16 км ясно +17.8 -3.3 24 +18 +18 1012.0 924.4
Ю 5 16 км ясно +19.4 -3.9 20 +19 +19 1011.9 924.7
ЮВ 5 16 км ясно +18.9 -4.4 20 +19 +19 1012.4 925.0
ЮВ 7 16 км ясно +18.3 -3.9 22 +18 +18 1012.7 925.0
Ю 5
{8}
16 км ясно +17.8 -2.2 26 +17 +17 1013.0 925.3 +16.1 +21.7
Ю 6 16 км ясно +16.7 -1.7 28 +16 +16 1013.2 925.3
ЮЗ 6 16 км ясно +16.7 -2.2 27 +16 +16 1014.1 926.3
Ю 7 16 км ясно +18.3 -2.8 24 +18 +18 1014.6 926.6
Ю 9
{11}
16 км ясно +20.0 -5.0 18 +19 +19 1015.1 927.2
ЮВ 8
{11}
16 км ясно +21.7 -5.6 16 +20 +22 1015.5 927.5
Ю 9
{12}
16 км ясно +22.8 -6.1 14 +21 +22 комфорт 1015.4 927.2 +15.6 +22.8
Ю 8
{12}
16 км ясно +23.9 -6.7 12 +22 +24 комфорт 1015.0 926.9
Ю 11
{15}
16 км ясно +24.4 -6.7 12 +22 +22 комфорт 1014.4 926.3
Ю 10
{14}
16 км ясно +25.6 -6.1 12 +23 +24 комфорт 1013.2 925.6
Ю 11
{16}
16 км ясно +25.6 -7.8 10 +23 +23 комфорт 1012.0 924.4
Ю 10
{14}
16 км ясно +25.6 -7.8 10 +23 +23 комфорт 1011.0 923.5
ЮВ 7
{13}
16 км ясно +26.1 -6.1 11 +23 +26 комфорт 1010.4 922.9 +22.8 +26.1
Ю 11
{14}
16 км ясно +24.4 -8.3 11 +22 +22 комфорт 1010.1 922.6
Ю 10
{12}
16 км ясно +22.8 -8.3 12 +21 +21 комфорт 1010.3 922.6
Ю 10
{11}
16 км ясно +21.7 -6.1 15 +20 +20 1010.2 922.6
Ю 9
{17}
16 км ясно +21.1 -3.9 18 +20 +20 1010.6 922.9
ЮЗ 8
{11}
16 км ясно +18.3 -2.8 24 +17 +17 1011.5 923.5
ЮЗ 7 16 км ясно +16.7 0.0 32 +16 +16 1012.4 924.4 +16.7 +26.1
Ю 6 16 км ясно +15.6 +1.7 39 +14 +14 1012.9 924.7
Ю 8 16 км ясно +14.4 +2.8 46 +12 +12 1013.6 925.3
Ю 9
{12}
16 км ясно +12.8 +2.8 51 +10 +10 1013.8 925.6
Ю 7
{11}
16 км ясно +11.7 +1.7 50 +9 +9 1014.4 926.0
Ю 8
{11}
16 км ясно +11.1 +1.7 52 +8 +8 1014.8 926.3
Ю 7
{10}
16 км ясно +10.6 +0.6 50 +7 +7 1015.4 926.9 +10.6 +16.7
Ю 9
{12}
16 км ясно +10.6 -2.2 41 +7 +7 1015.4 926.6
Ю 9 16 км ясно +10.6 -3.9 36 +7 +7 1016.5 927.5
Ю 10
{12}
16 км ясно +12.2 -7.2 25 +9 +9 1016.8 927.8
Ю 11
{13}
16 км ясно +14.4 -8.9 19 +12 +12 1016.8 927.8
Ю 11
{14}
16 км ясно +16.1 -9.4 16 +14 +14 1016.9 928.1
ЮЗ 9
{11}
16 км ясно +16.7 -8.9 16 +15 +17 1017.4 928.4 +10.0 +17.2
ЮЗ 7
{10}
16 км ясно +18.3 -7.2 17 +18 +22 1016.3 927.5
ЮЗ 7
{9}
16 км ясно +19.4 -7.2 16 +19 +24 1015.5 926.9
ЮЗ 8
{12}
16 км ясно +19.4 -7.2 16 +18 +22 1014.9 926.3
ЮЗ 7
{11}
16 км ясно +20.0 -5.0 18 +19 +24 1014.3 925.6
ЮЗ 9
{13}
16 км ясно +19.4 -4.4 20 +18 +20 1013.7 925.0
Местоположение метеостанции Henderson Executive Airport: широта 35.9728 долгота -115.1344 высота над уровнем моря 760 м.
В архиве по умолчанию представлена погода в Лас-Вегасе за последние 1-2 суток. Обновление информации о фактической погоде в базе происходит ежечасно! Архивные данные за месяц целиком и за предыдущие месяцы Вы можете получить, выбрав интересующий диапазон дат из раскрывающегося списка и нажав кнопку "Ввод!".
Внимание! Архив погоды МЕТАР в базе сайта по станциям, не включенным в климатический монитор, хранится не более 60 дней. Нет смысла пытаться выбрать более раннюю дату.
*Определитесь, кто Вы:
Внимание! Время в таблицах - местное (без учета летнего времени). Для получения всемирного времени необходимо вычесть поправку, которая равна -8 ч.
Смотрите также архив погоды в соседних городах и на ближайших метеорологических станциях:
Партнеры нашего сайта:      
Пояснения к столбцам:
  • Ветер - указаны скорость ветра в м/с - средняя за 10 мин, порывы в срок и между сроками (в фигурных скобках) и направление, откуда дует ветер: С - северный,
  • СВ - северо-восточный, В - восточный, ЮВ - юго-восточный, Ю - южный, ЮЗ - юго-западный, З - западный, СЗ - северо-западный.
  • Видимость - горизонтальная дальность видимости в метрах или километрах. При видимости от 1 до 10 км при отсутствии осадков обычно наблюдается дымка, при ухудшении видимости до 1 км и менее - туман. В сухую погоду видимость может ухудшаться дымом, пылью или мглою.
  • Явления - указаны атмосферные явления, наблюдавшиеся в срок или в последний час перед сроком; фигурными скобками обозначены явления, наблюдавшиеся между сроками (за 1-3 часа до срока); квадратными скобками обозначены град или гололедные отложения с указанием их диаметра в мм.
  • Облачность - указаны через наклонную черту общая и нижняя облачность в баллах и высота нижней границы облаков в метрах; квадратными скобками обозначены формы облаков: Ci - перистые, Cs - перисто-слоистые, Cc - перисто-кучевые, Ac - высококучевые, As - высокослоистые, Sc - слоисто-кучевые, Ns - слоисто-дождевые, Cu - кучевые, Cb - кучево-дождевые. Подробнее классификацию облаков см. в Атласе облаков (PDF).
  • T - Температура воздуха - температура, измеренная на высоте 2 м над землей.
  • Td - Температура точки росы - температура, при понижении до которой содержащийся в воздухе водяной пар достигнет насыщения.
  • f - Относительная влажность воздуха - влажноcть воздуха, измеренная на высоте 2 м над землей.
  • Te - Эффективная температура - температура, которую ощущает одетый по сезону человек в тени. Характеристика душности погоды. При расчете учитывается влияние влажности воздуха и скорости ветра на теплоощущения человека.
  • Tes - Эффективная температура на солнце - температура, которую ощущает человек, с поправкой на солнечный нагрев. Характеристика знойности погоды. Зависит от высоты солнца над горизонтом, облачности и скорости ветра. Ночью, в пасмурную погоду, а также при ветре 12 м/с и более поправка равна нулю.
  • P - Атмосферное давление - приведенное к уровню моря атмосферное давление.
  • Po - Атмосферное давление - измеренное на уровне метеостанции атмосферное давление.
  • Tmin - Минимальная температура - минимум температуры воздуха на высоте 2 м над землей.
  • Tmax - Максимальная температура - максимум температуры воздуха на высоте 2 м над землей.
  • R - Количество осадков - Количество выпавших осадков за период времени, мм. При наведении курсора мыши на число - период времени, за который выпало указанное количество осадков.
  • R24 - Количество осадков - Количество выпавших осадков за 24 часа, мм.
  • S - Снежный покров - Высота снежного покрова, см. При наведении курсора мыши на число - состояние снежного покрова и степень покрытия местности в баллах.